Location: Piotrkow Trybunalski
(51.4000°N, 19.6830°E)
Time: 10:12:38
(UTC+01:00)

Transit 2A - All Passes

Search period start: 24 February 2024 00:00
Search period end: 05 March 2024 00:00
Orbit: 600 x 953 km, 66.7° (Epoch: 23 February)

Date Brightness Start Highest point End Pass type
(mag) Time Alt. Az. Time Alt. Az. Time Alt. Az.
24 Feb - 01:32:15 10° NNW 01:35:14 17° NNE 01:38:22 10° ENE visible
24 Feb - 03:14:48 10° NNW 03:19:21 50° NE 03:24:21 10° ESE visible
24 Feb - 04:58:03 10° NW 05:02:21 33° WSW 05:07:00 10° S visible
24 Feb - 19:42:32 10° SSW 19:46:48 59° ESE 19:51:07 10° NE visible
24 Feb - 21:26:28 10° W 21:30:12 27° NW 21:34:02 10° NNE visible
24 Feb - 23:12:52 10° NW 23:14:50 13° N 23:16:50 10° NNE night (unlit)
25 Feb - 00:57:18 10° NNW 00:59:53 15° NNE 01:02:34 10° NE night (unlit)
25 Feb - 02:39:52 10° NNW 02:44:13 38° NE 02:48:58 10° ESE visible
25 Feb - 04:22:51 10° NW 04:27:26 46° WSW 04:32:27 10° SSE visible
25 Feb - 19:07:49 10° S 19:11:53 40° ESE 19:15:59 10° NE visible
25 Feb - 20:51:00 10° WSW 20:54:59 35° NW 20:59:06 10° NNE visible
25 Feb - 22:37:07 10° NW 22:39:26 14° NNW 22:41:47 10° NNE night (unlit)
26 Feb - 00:22:17 10° NNW 00:24:29 13° NNE 00:26:46 10° NE night (unlit)
26 Feb - 02:04:57 10° NNW 02:09:03 30° NE 02:13:29 10° E visible
26 Feb - 03:47:44 10° NW 03:52:28 65° WSW 03:57:40 10° SSE visible
26 Feb - 05:33:13 10° W 05:34:49 11° WSW 05:36:27 10° SW visible
26 Feb - 18:33:20 10° S 18:37:00 27° ESE 18:40:42 10° ENE visible
26 Feb - 20:15:40 10° WSW 20:19:51 47° NW 20:24:09 10° NNE visible
26 Feb - 22:01:21 10° WNW 22:04:02 16° NNW 22:06:48 10° NNE visible
26 Feb - 23:47:10 10° NNW 23:49:04 12° N 23:51:02 10° NNE night (unlit)
27 Feb - 01:30:01 10° NNW 01:33:50 24° NNE 01:37:53 10° E night (unlit)
27 Feb - 03:12:42 10° NW 03:17:28 89° WSW 03:22:44 10° SE visible
27 Feb - 04:56:55 10° WNW 05:00:03 17° WSW 05:03:19 10° SSW visible
27 Feb - 17:59:09 10° SSE 18:02:11 19° ESE 18:05:14 10° ENE visible
27 Feb - 19:40:27 10° SW 19:44:46 67° NW 19:49:11 10° NE visible
27 Feb - 21:25:37 10° WNW 21:28:42 18° NNW 21:31:51 10° NNE visible
27 Feb - 23:11:53 10° NNW 23:13:39 12° N 23:15:27 10° NNE night (unlit)
28 Feb - 00:55:06 10° NNW 00:58:33 20° NNE 01:02:11 10° ENE night (unlit)
28 Feb - 02:37:42 10° NW 02:42:26 67° NE 02:47:38 10° SE visible
28 Feb - 04:21:19 10° WNW 04:25:12 24° WSW 04:29:23 10° SSW visible
28 Feb - 17:25:34 10° SE 17:27:25 13° ESE 17:29:17 10° E daylight
28 Feb - 19:05:24 10° SW 19:09:44 86° SE 19:14:10 10° NE visible
28 Feb - 20:49:58 10° W 20:53:24 22° NNW 20:56:56 10° NNE visible
28 Feb - 22:36:24 10° NNW 22:38:13 12° N 22:40:03 10° NNE visible
29 Feb - 00:20:10 10° NNW 00:23:13 17° NNE 00:26:25 10° ENE night (unlit)
29 Feb - 02:02:44 10° NNW 02:07:20 50° NE 02:12:23 10° ESE night (unlit)
29 Feb - 03:45:59 10° NW 03:50:20 33° WSW 03:55:04 10° S visible
29 Feb - 18:30:30 10° SSW 18:34:44 59° ESE 18:39:05 10° NE visible
29 Feb - 20:14:23 10° W 20:18:09 27° NW 20:22:01 10° NNE visible
29 Feb - 22:00:45 10° NW 22:02:47 13° N 22:04:52 10° NNE visible
29 Feb - 23:45:12 10° NNW 23:47:51 15° NNE 23:50:37 10° NE night (unlit)
01 Mar - 01:27:47 10° NNW 01:32:12 38° NE 01:37:00 10° ESE night (unlit)
01 Mar - 03:10:46 10° NW 03:15:25 47° WSW 03:20:30 10° SSE night (unlit)
01 Mar - 17:55:47 10° S 17:59:49 40° ESE 18:03:56 10° NE visible
01 Mar - 19:38:56 10° WSW 19:42:56 35° NW 19:47:04 10° NNE visible
01 Mar - 21:25:01 10° NW 21:27:22 14° NNW 21:29:47 10° NNE visible
01 Mar - 23:10:10 10° NNW 23:12:27 13° NNE 23:14:48 10° NE visible
02 Mar - 00:52:51 10° NNW 00:57:01 30° NE 01:01:30 10° E night (unlit)
02 Mar - 02:35:40 10° NW 02:40:27 66° WSW 02:45:43 10° SSE night (unlit)
02 Mar - 04:21:02 10° W 04:22:48 12° WSW 04:24:36 10° SW night (unlit)
02 Mar - 17:21:17 10° S 17:24:57 27° ESE 17:28:39 10° ENE daylight
02 Mar - 19:03:36 10° WSW 19:07:47 48° NW 19:12:07 10° NNE visible
02 Mar - 20:49:15 10° WNW 20:51:59 16° NNW 20:54:48 10° NNE visible
02 Mar - 22:35:02 10° NNW 22:37:02 12° N 22:39:04 10° NNE visible
03 Mar - 00:17:55 10° NNW 00:21:46 24° NNE 00:25:53 10° E night (unlit)
03 Mar - 02:00:37 10° NW 02:05:26 90° SW 02:10:46 10° SE night (unlit)
03 Mar - 03:44:48 10° WNW 03:48:01 17° WSW 03:51:24 10° SSW night (unlit)
03 Mar - 16:47:07 10° SSE 16:50:08 19° ESE 16:53:11 10° ENE daylight
03 Mar - 18:28:23 10° SW 18:32:41 67° NW 18:37:08 10° NE visible
03 Mar - 20:13:32 10° WNW 20:16:38 19° NNW 20:19:51 10° NNE visible
03 Mar - 21:59:44 10° NNW 22:01:35 12° N 22:03:28 10° NNE visible
03 Mar - 23:43:00 10° NNW 23:46:30 20° NNE 23:50:11 10° ENE visible
04 Mar - 01:25:36 10° NW 01:30:23 67° NE 01:35:40 10° SE night (unlit)
04 Mar - 03:09:13 10° WNW 03:13:11 24° WSW 03:17:26 10° SSW night (unlit)
04 Mar - 16:13:32 10° SE 16:15:22 12° ESE 16:17:12 10° E daylight
04 Mar - 17:53:19 10° SW 17:57:39 86° SE 18:02:07 10° NE visible
04 Mar - 19:37:52 10° W 19:41:19 22° NNW 19:44:54 10° NNE visible
04 Mar - 21:24:15 10° NNW 21:26:09 12° N 21:28:04 10° NNE visible
04 Mar - 23:08:03 10° NNW 23:11:09 17° NNE 23:14:25 10° ENE visible
